Погода в Мальграт-де-Маре

Испания     41°38′46″N   2°44′08″E
темп.,
°C
ветер,
м/с
пор.,
м/с
влажн.,
%
обл.,
%
осадки,
мм/ч
давл.,
гПа
погр.,
м
23 октября, сб
сб2323:00+13с2273100 0.0 102043
02:00+12с227765 0.0 102034
05:00+11с2281100 0.0 101933
08:00+11с228443 0.0 102030
11:00+16ссв125566 0.0 1022414
14:00+20вюв22451 0.0 10211291
17:00+19вюв22390 0.0 1020701
20:00+12с22550 0.0 102251
24 октября, вс
вс2423:00+11ссз22590 0.0 102339
02:00+11ссз22590 0.0 102337
05:00+11ссз22570 0.0 102239
08:00+10ссз32540 0.0 102347
11:00+17с24450 0.0 1023363
14:00+21св23480 0.0 10221387
17:00+20св33553 0.0 10211241
20:00+14с22910 0.0 102359
25 октября, пн
пн2523:00+13ссз23950 0.0 102462
02:00+13ссз22940 0.0 102349
05:00+12ссз22911 0.0 102346
08:00+11ссз22893 0.0 102344
11:00+17с23672 0.0 1023427
14:00+21юв225419 0.0 10221330
17:00+17ююв337767 0.0 1021425
20:00+14сз009326 0.0 102249
26 октября, вт
вт2623:00+13сз119596 0.0 102323
02:00+13сз229021 0.0 102221
05:00+12сз21830 0.0 102218
08:00+12сз22770 0.0 102221
11:00+19сз01510 0.0 1023285
14:00+22ююв223939 0.0 10211491
17:00+20ююв44475 0.0 1020466
20:00+14юз11793 0.0 102247
27 октября, ср
ср2723:00+13сз227954 0.0 102225
02:00+12ссз22745 0.0 102121
05:00+12ссз2268100 0.0 102127
08:00+11ссз22640 0.0 102122
11:00+17св11490 0.0 1021413
14:00+20юв224011 0.0 10201590
17:00+18юв335220 0.0 1020792
20:00+13ссв22705 0.0 102155